Location: *
(23.5860°S, 65.4036°W)
Time: 05:11:14
(UTC+00:00)

Cosmos 990 Rocket - Pass Details

Date: 25 August 2019
Orbit: 748 x 768 km, 74.0° (Epoch: 19 September)

Event Time Altitude Azimuth Distance (km) Brightness Sun altitude
Rises 23:02:31 0° 194° (SSW) 3,259 7.4 -13.0°
Reaches altitude 10° 23:04:54 10° 194° (SSW) 2,326 6.6 -13.6°
Maximum altitude 23:10:12 86° 104° (ESE) 778 4.0 -14.8°
Drops below altitude 10° 23:15:26 10° 15° (NNE) 2,297 6.4 -16.0°
Sets 23:17:47 0° 14° (NNE) 3,214 7.1 -16.5°
